EHI
0 0 0 0 0 0 0 0 0 0 0 0 0 0 0 0 0 0 0 0 0 1 2 2 2 1 1 3 7 15 19 17 11 6 2 0 0 0 0 0 0 0 0 0 0 0 0 0 0
0 0 0 0 0 0 0 0 0 0 0 0 0 0 0 0 0 0 0 0 0 0 1 2 3 3 4 6 10 15 19 17 12 6 3 1 0 0 0 0 0 0 0 0 0 0 0 0 0
0 0 0 0 0 0 0 0 0 0 0 0 0 0 0 0 0 0 0 0 0 0 1 2 3 4 6 9 13 18 20 19 15 9 6 4 2 1 0 0 0 0 0 0 0 0 0 0 0
0 0 0 0 0 0 0 0 0 0 0 0 0 0 0 0 0 0 0 0 0 0 1 2 4 5 7 11 16 21 24 24 21 17 14 10 6 3 1 0 0 0 0 0 0 0 0 0 0
0 0 0 0 0 0 0 0 0 0 0 0 0 0 0 0 0 0 0 0 0 0 0 2 4 4 6 10 15 21 25 26 27 25 22 17 12 7 3 1 1 0 0 0 0 0 0 0 0
0 0 0 0 0 0 0 0 0 0 0 0 0 0 0 0 0 0 0 0 0 0 0 1 2 2 3 5 9 13 16 19 21 22 21 18 13 8 5 3 2 1 0 0 0 0 0 0 1
0 0 0 0 0 0 0 0 0 0 0 0 0 0 0 0 0 0 0 0 0 0 0 0 0 0 0 1 2 4 5 7 9 11 12 11 9 7 5 4 2 1 0 0 0 0 0 0 1
0 0 0 0 0 0 0 0 0 0 0 0 0 0 1 2 1 0 0 0 0 0 0 0 0 0 0 0 1 1 1 1 2 4 6 5 4 4 4 4 6 4 1 0 0 0 0 0 1
0 0 0 0 0 0 0 0 0 0 0 0 0 0 3 5 4 1 0 0 0 0 0 0 0 0 0 1 2 2 0 0 0 2 3 2 1 2 2 7 14 12 3 0 0 1 1 0 0
0 0 0 0 0 0 0 0 0 0 0 0 0 1 6 10 8 3 0 0 0 0 0 0 0 0 0 1 2 2 1 1 1 1 1 0 0 0 1 8 18 15 4 0 1 2 2 2 2
0 0 0 0 0 0 0 0 0 0 0 0 1 6 11 14 11 5 1 0 0 0 0 0 1 2 2 2 2 2 2 3 2 1 0 2 4 3 2 7 13 12 5 3 5 6 5 4 4
0 0 0 0 0 0 0 0 0 0 0 0 5 14 20 16 10 5 1 0 0 0 0 0 2 7 10 11 10 7 5 3 3 3 3 5 9 7 5 10 13 12 10 10 11 12 10 8 6
0 0 0 0 0 0 0 0 0 0 0 2 11 23 23 14 7 5 4 2 1 0 0 2 7 16 24 28 26 18 11 6 5 6 6 7 10 9 9 15 17 15 17 21 22 20 18 15 11
0 0 0 0 0 0 0 0 0 0 0 6 19 28 22 13 8 8 9 6 2 0 2 7 15 26 36 41 38 26 14 10 8 8 7 6 7 8 10 14 16 17 21 31 35 32 30 27 23
0 0 0 0 0 0 0 0 0 1 3 11 27 37 33 22 14 11 10 7 3 3 8 17 26 36 45 47 40 25 14 11 10 8 7 5 5 7 9 11 13 17 24 35 42 44 44 44 40
0 0 0 0 0 0 0 1 2 4 7 17 33 45 45 35 23 15 10 9 9 11 20 30 35 40 47 47 37 22 13 11 8 7 5 3 3 5 7 9 10 15 22 31 42 52 59 60 57
0 0 0 0 0 0 0 2 5 8 11 21 34 42 44 39 31 24 20 23 27 29 33 36 35 35 38 38 28 16 10 7 5 3 2 2 2 3 3 4 6 9 14 22 34 52 64 65 64
0 0 0 0 0 0 0 1 5 7 11 21 32 38 40 42 42 41 42 45 50 50 44 36 29 27 26 23 16 8 4 3 2 1 1 1 1 1 1 1 2 3 6 11 21 36 48 54 57
0 0 0 0 0 0 0 0 1 3 7 17 29 37 42 48 57 61 63 61 61 58 47 33 25 22 17 14 10 5 3 2 1 0 1 1 0 0 1 0 0 0 2 5 11 17 22 29 38
0 0 0 0 0 0 0 0 0 1 4 12 25 38 49 59 67 70 68 62 57 52 41 28 22 18 13 13 12 9 7 5 2 1 1 1 0 0 0 0 0 0 1 3 5 6 7 11 16
0 0 0 0 0 0 0 0 0 0 3 11 25 41 56 65 67 64 59 52 45 39 30 21 18 18 17 18 17 15 13 8 3 2 2 1 1 1 0 0 0 0 1 1 1 2 3 4 5
0 0 0 0 0 0 0 0 0 0 3 11 23 37 52 61 59 54 48 40 32 26 20 16 16 19 23 27 29 25 17 7 3 3 2 2 2 1 0 0 0 0 0 0 0 0 1 3 3
0 0 0 0 0 0 0 0 0 0 3 9 18 30 43 49 47 41 35 30 24 19 14 11 14 22 31 42 50 45 27 12 7 6 4 3 2 1 0 0 0 0 0 0 0 0 0 1 1
0 0 0 0 0 0 0 0 0 0 1 5 14 25 32 35 31 24 20 18 17 14 11 10 15 26 40 55 67 63 47 32 22 15 8 4 2 1 0 0 0 0 0 0 0 0 0 0 0
0 0 0 0 0 0 0 0 0 0 0 2 8 15 17 16 14 10 7 7 7 9 10 12 19 30 43 58 70 72 64 50 36 24 14 8 4 1 0 0 0 0 0 0 0 0 0 0 0
0 0 0 0 0 0 0 0 0 0 0 0 2 3 3 3 3 2 1 1 2 4 7 12 20 30 41 53 64 70 68 56 42 33 23 14 8 4 1 0 0 0 0 0 0 0 0 0 0
0 0 0 0 0 0 0 0 0 0 0 0 0 0 0 0 0 0 0 0 0 1 3 8 16 24 31 39 46 51 52 49 45 41 33 23 17 11 5 3 1 0 0 0 0 0 0 0 0
0 0 0 0 0 0 0 0 1 1 1 0 0 0 0 0 0 0 0 0 0 0 0 3 7 11 14 19 23 26 31 35 37 35 32 28 24 20 14 8 4 2 0 0 0 0 0 0 0
0 0 0 0 0 0 0 0 1 1 1 0 0 0 0 0 0 0 0 0 0 0 0 0 1 2 3 5 7 11 15 19 20 20 20 22 23 22 18 12 7 3 1 0 0 0 0 0 0
0 0 0 0 0 0 0 0 0 1 0 0 0 0 0 0 0 0 0 0 0 0 0 0 0 0 0 1 2 5 9 10 10 11 12 15 19 18 15 12 8 4 1 0 0 0 0 0 0
Wind_Speed
8 8 7 6 8 3 10 9 7 6 6 6 4 3 3 5 5 8 8 14 15 16 18 18 15 14 13 13 13 13 13 13 13 12 12 11 11 10 9 9 8 7 7 6 6 6 5 5 6
5 6 7 8 5 8 10 6 7 8 7 4 4 3 4 7 7 9 11 14 16 17 17 16 17 15 14 13 13 13 13 13 12 12 11 10 10 9 9 8 7 6 6 6 5 5 5 5 5
6 7 7 6 2 7 9 6 6 6 3 2 4 4 5 7 7 8 12 17 16 15 15 16 17 15 14 13 13 12 12 12 12 11 10 10 9 9 8 7 7 6 5 5 5 5 5 4 4
5 7 7 6 7 7 5 4 2 3 4 4 3 7 7 7 5 10 16 17 16 15 15 17 17 16 15 14 13 12 12 12 11 11 10 10 9 9 8 7 7 6 6 6 5 5 5 5 5
7 7 7 4 6 5 2 2 1 1 4 4 4 8 9 6 8 14 16 16 16 15 14 17 17 16 15 14 13 12 12 11 11 11 10 10 9 9 8 8 7 7 7 6 6 6 6 7 7
6 6 7 5 6 4 3 1 2 1 4 5 5 9 9 8 10 14 15 14 14 14 14 16 16 14 14 13 12 12 11 11 11 11 11 10 10 9 9 9 9 9 9 8 8 8 8 8 8
8 7 4 3 6 5 4 2 2 2 3 4 4 8 10 11 11 13 13 12 12 13 12 13 15 14 13 11 11 11 11 11 11 11 10 10 10 10 10 10 10 10 10 10 10 10 10 10 10
6 7 6 6 6 5 4 1 1 2 3 5 4 5 10 14 12 13 12 11 11 11 11 11 12 13 12 13 13 11 11 11 11 11 11 11 11 12 12 12 13 12 12 12 12 12 12 12 12
6 9 8 5 4 4 4 1 2 1 5 5 3 4 10 18 15 14 12 11 10 10 9 11 11 10 10 10 11 12 12 12 11 12 13 12 11 12 12 14 10 11 12 13 13 13 13 12 14
6 9 3 2 2 2 3 2 1 6 8 7 8 9 13 17 16 15 14 13 13 12 11 10 9 9 9 7 7 8 10 10 11 9 10 9 9 8 8 2 7 11 14 14 15 15 14 14 11
6 6 2 1 2 5 4 2 3 6 7 6 8 13 16 18 16 15 13 12 12 12 11 11 10 9 9 6 5 5 5 5 8 9 9 8 7 7 7 6 8 11 13 12 12 14 11 11 8
6 4 4 4 4 6 6 5 4 6 2 3 2 11 17 17 17 15 14 12 11 11 11 10 10 9 8 6 5 5 5 5 6 7 8 7 6 7 7 6 8 7 6 7 8 7 9 10 10
7 5 4 5 7 8 9 9 7 6 2 1 5 12 15 16 15 13 12 11 10 10 10 10 9 9 8 7 5 6 6 6 6 6 7 8 7 8 8 7 7 9 8 8 8 9 9 10 11
5 8 8 6 6 5 8 8 8 4 2 2 7 11 14 14 14 13 11 11 10 10 10 9 10 9 8 7 6 6 6 5 7 6 7 8 7 8 8 9 9 9 9 8 8 10 9 9 9
6 8 8 3 4 3 7 11 7 3 3 5 8 9 11 11 11 11 11 10 10 10 9 9 9 10 10 9 8 6 6 6 5 5 7 8 8 8 9 9 9 9 9 10 9 11 9 10 10
7 10 10 3 2 1 8 12 2 2 4 5 7 8 9 9 10 9 9 9 8 8 8 9 8 9 9 7 6 5 5 4 5 5 6 7 8 9 8 8 9 9 9 9 9 9 9 10 10
9 10 7 4 3 1 6 5 4 2 3 5 6 8 8 9 9 8 8 8 8 7 8 8 8 7 6 6 5 5 3 4 5 5 5 6 7 8 9 8 8 9 9 9 10 8 9 10 11
4 5 5 2 4 3 3 2 1 1 2 4 6 6 7 8 7 7 6 6 7 7 7 7 7 6 5 5 4 3 3 3 3 4 4 6 7 8 8 9 9 10 10 9 9 10 10 10 10
1 3 2 1 3 5 3 4 1 0 2 3 5 5 6 6 6 6 6 7 8 8 7 6 6 7 5 4 3 3 3 3 3 4 4 6 7 7 7 9 8 9 9 10 12 11 12 11 10
3 4 3 2 1 6 7 8 4 2 2 3 4 5 6 5 6 6 6 7 7 7 6 6 6 6 6 4 3 2 2 3 3 4 3 5 6 7 7 7 9 9 8 10 11 11 11 11 9
2 4 5 6 6 7 8 12 8 5 3 2 3 4 4 5 6 6 6 5 4 5 5 3 4 5 6 5 5 3 4 5 4 4 3 4 6 7 7 8 9 9 10 9 10 11 13 12 11
4 2 6 8 10 9 5 11 5 3 2 1 2 2 2 3 3 3 3 2 2 2 1 2 4 5 6 7 7 7 5 5 4 4 4 5 6 6 7 8 8 9 9 10 11 11 10 12 12
6 3 7 9 10 11 8 10 2 3 3 5 5 5 4 3 4 4 4 3 3 3 4 5 6 6 7 8 8 7 8 6 4 4 5 6 6 6 6 7 8 8 9 10 11 11 12 11 12
2 6 8 9 9 9 2 8 1 7 9 9 9 10 10 9 8 9 9 8 7 7 6 6 6 7 7 8 8 8 8 7 7 7 7 6 5 5 6 7 7 9 9 10 11 11 13 12 13
6 9 8 7 6 2 2 7 6 9 9 10 10 12 13 13 13 13 13 13 12 12 10 8 6 6 6 7 7 7 8 8 8 8 7 7 7 6 6 7 8 9 9 11 11 12 13 13 14
9 10 10 9 8 6 4 5 9 8 8 9 11 12 13 14 14 14 14 14 13 14 13 12 10 8 7 6 6 6 7 8 7 7 8 8 7 7 7 8 9 11 11 11 11 11 12 12 12
9 8 9 11 13 12 7 4 10 7 8 9 10 11 12 13 13 13 13 13 13 13 13 13 12 11 10 9 8 7 7 8 9 9 9 9 7 7 8 9 10 11 11 12 12 11 12 12 12
5 7 6 9 9 10 8 8 5 6 5 7 8 9 10 11 11 12 12 12 12 12 11 12 12 11 11 11 9 8 8 9 9 10 11 10 10 9 10 10 10 11 11 11 11 12 11 12 11
4 4 5 8 8 10 13 4 8 6 4 5 6 8 9 10 11 10 10 11 11 11 11 11 11 11 11 11 11 11 10 10 10 10 11 11 11 10 11 10 10 10 10 10 10 11 11 11 10
5 5 5 7 8 9 13 2 8 6 4 5 7 8 9 10 10 11 11 10 10 11 11 11 11 11 11 11 11 12 12 12 12 12 12 11 11 11 12 11 10 10 9 9 9 10 9 9 8
Wind_Direction
193 200 219 234 237 128 82 78 66 67 62 49 54 16 26 28 5 60 110 141 141 144 142 152 158 156 152 145 141 140 140 140 140 141 142 142 142 141 139 138 135 131 128 125 125 126 126 125 127
211 201 226 239 242 100 93 76 68 56 67 76 79 73 66 67 52 98 133 141 147 146 147 156 155 159 156 152 149 148 147 147 147 147 148 148 148 148 149 148 146 145 142 141 143 145 144 145 147
206 226 258 249 93 83 94 88 75 85 77 28 69 55 49 68 97 121 136 147 150 145 148 147 158 163 160 158 157 157 156 155 155 156 157 157 158 159 160 160 163 166 166 166 170 172 170 170 172
218 227 239 241 112 77 68 82 80 106 90 67 87 93 84 66 100 127 141 151 149 150 156 148 165 166 165 164 165 166 166 165 165 166 167 168 169 172 174 177 182 189 193 196 199 200 198 196 198
244 259 244 182 116 97 70 29 248 38 61 80 89 100 99 91 106 132 147 154 155 156 156 151 167 169 170 171 172 174 176 176 177 178 179 181 183 187 192 196 201 208 214 219 222 222 221 216 214
249 252 242 167 117 109 89 66 220 127 99 108 113 112 105 120 135 144 151 159 158 158 160 148 165 173 175 177 179 183 186 188 189 190 192 194 198 204 210 214 217 220 224 227 229 231 231 230 228
280 274 247 169 139 122 51 342 239 128 152 129 127 116 125 145 142 148 151 159 160 160 159 157 167 174 180 184 189 192 196 199 202 204 206 208 212 217 222 226 229 229 229 230 231 231 232 232 231
291 271 218 192 169 118 56 351 24 231 140 124 166 141 146 148 149 149 150 159 163 165 168 168 176 174 182 185 191 200 206 210 213 217 219 221 225 227 228 232 226 232 238 238 238 237 236 235 234
265 255 224 191 175 114 52 8 131 186 145 160 151 65 117 138 150 155 157 161 166 173 179 181 180 178 192 197 180 194 206 213 219 220 220 228 237 234 217 227 216 228 241 245 246 245 243 241 235
252 252 219 70 348 13 18 319 237 194 179 173 150 115 130 146 159 167 169 170 173 179 186 187 196 180 198 206 187 209 213 206 219 234 227 228 243 260 267 225 212 239 247 250 247 247 247 241 242
257 274 3 202 319 319 295 262 234 236 201 187 179 156 157 162 169 177 179 179 175 182 188 189 192 189 203 208 218 219 230 225 227 236 244 252 264 259 254 252 220 225 232 241 234 232 238 240 240
267 269 293 298 318 296 292 289 262 251 318 34 170 158 166 174 178 182 180 181 175 186 189 193 186 194 207 220 222 231 239 237 245 238 245 251 253 261 266 265 270 264 251 249 257 254 251 254 254
250 274 288 292 286 285 279 267 276 264 317 31 154 164 175 181 180 181 178 180 180 189 194 193 193 194 198 208 230 234 246 254 248 257 254 258 260 263 268 270 268 271 272 262 254 259 263 258 256
304 293 279 277 279 259 259 254 246 257 305 192 174 176 181 182 180 175 179 186 191 196 197 192 197 197 199 205 215 232 245 245 265 261 264 267 270 273 276 273 270 269 268 267 266 263 261 259 257
281 271 244 226 261 251 259 241 235 301 261 209 186 177 174 177 180 184 186 192 197 198 199 195 199 201 204 213 219 230 239 248 261 271 274 275 276 279 279 279 275 271 273 271 266 263 260 256 252
239 242 233 149 327 220 250 251 119 309 231 206 185 172 172 176 187 190 192 199 205 202 193 197 204 201 203 213 227 244 262 278 280 284 286 289 293 290 287 281 281 285 279 273 266 260 258 256 256
215 231 235 174 44 323 258 275 50 322 229 198 187 178 176 175 189 188 194 194 196 195 191 194 201 200 199 201 215 238 254 269 281 288 296 309 301 300 294 290 289 287 280 274 272 269 262 262 259
205 223 214 228 40 330 287 313 49 33 243 206 191 184 182 187 185 179 184 179 173 173 175 183 180 183 184 188 196 228 247 261 273 292 304 303 300 303 303 293 294 293 286 280 275 275 267 263 263
281 255 237 58 17 315 313 303 327 149 223 212 206 197 200 196 172 167 167 163 159 159 159 168 166 162 175 181 201 210 231 262 281 290 311 301 304 308 299 296 302 290 287 290 290 284 275 266 262
226 239 237 213 350 306 300 285 263 232 251 271 254 229 218 205 183 171 167 161 160 154 153 165 169 169 187 183 206 230 274 276 299 303 301 295 304 305 297 302 297 295 294 286 282 280 279 276 265
254 298 320 316 309 252 277 263 222 191 219 246 258 252 237 221 201 175 166 153 155 162 165 174 184 184 202 199 209 205 223 243 249 276 282 298 304 302 303 300 296 299 289 286 287 285 276 275 272
285 335 303 298 291 289 286 285 234 189 217 286 306 289 259 233 216 170 152 141 183 211 197 225 232 220 216 216 226 233 253 274 301 298 303 302 290 296 299 296 295 292 290 290 283 279 281 275 272
327 329 284 290 286 280 253 268 208 113 1 7 22 17 10 29 36 37 27 15 343 322 297 270 256 243 232 232 233 237 248 261 275 286 288 288 291 287 290 295 294 291 287 288 287 285 277 272 270
272 250 249 251 259 255 256 282 126 52 9 6 31 36 32 31 34 31 22 15 360 343 316 288 271 259 249 241 242 243 256 264 277 280 290 286 290 289 291 292 290 288 289 289 284 281 275 268 268
252 278 281 267 245 257 121 270 66 53 34 30 38 43 40 38 36 33 28 23 17 9 356 337 316 295 279 261 256 252 257 260 258 268 275 282 292 296 304 302 296 292 292 290 288 282 278 273 268
297 289 283 294 299 298 229 259 95 80 65 57 53 50 46 44 41 39 34 30 26 22 16 10 0 348 335 312 295 282 272 265 264 261 277 281 285 295 306 296 291 291 291 290 288 283 277 273 270
295 279 300 286 277 277 272 140 128 110 79 64 56 51 46 40 37 34 31 27 24 22 21 17 15 10 3 353 339 316 298 285 283 278 263 266 269 277 281 286 288 290 291 291 290 283 282 278 272
311 312 277 273 283 285 274 248 173 115 71 61 50 41 36 30 26 24 20 18 15 14 14 13 12 8 3 358 349 340 324 307 292 282 279 275 273 270 272 275 282 287 291 294 294 294 291 287 282
274 249 283 282 289 291 291 321 67 81 63 33 33 25 16 9 7 7 6 4 2 1 3 2 1 359 357 354 346 339 332 325 313 297 286 277 269 265 263 269 277 284 291 297 299 299 302 299 297
276 301 287 287 288 277 281 337 82 77 58 24 5 1 355 349 347 348 350 350 349 349 348 348 345 346 343 343 339 337 332 330 323 316 304 290 276 265 261 263 269 277 288 295 298 303 310 313 311